Location: Barcelona
(41.3829°N, 2.1774°E)
Time: 17:50:00
(UTC+00:00)

ISS - Pass Details

Date: 11 May 2026
Orbit: 414 x 424 km, 51.6° (Epoch: 17 May)

Event Time Altitude Azimuth Distance (km) Brightness Sun altitude
Rises 19:38:58 0° 240° (WSW) 2,339 0.4 -7.4°
Reaches altitude 10° 19:41:03 10° 243° (WSW) 1,480 -0.5 -7.7°
Maximum altitude 19:44:21 66° 327° (NNW) 455 -3.3 -8.2°
Drops below altitude 10° 19:47:41 10° 50° (NE) 1,488 -1.1 -8.7°
Sets 19:49:47 0° 53° (NE) 2,355 -0.1 -9.1°
